Regional Weather Roundup
Issued by NWS

Home | Current Version | Previous Version | Graphics & Text | Print | Product List | Glossary On
Versions: 1 2 3 4 5 6 7 8 9 10 11 12 13 14 15 16 17 18 19 20 21 22 23 24 25 26 27 28 29 30 31 32 33 34 35 36 37 38 39 40 41 42 43 44 45 46 47 48 49 50
000
ASUS44 KMEG 161010
RWRTN
TENNESSEE HOURLY STATE WEATHER ROUNDUP
NATIONAL WEATHER SERVICE MEMPHIS TN
500 AM CDT TUE SEP 16 2014

TNZ002-004-019-021-049-052-054-088>092-161100-
WEST TENNESSEE

CITY           SKY/WX    TMP DP  RH WIND       PRES   REMARKS
MEMPHIS INTL   MOCLDY    70  65  84 CALM      30.10F
NWS MEMPHIS      N/A     66 N/A N/A MISG        N/A
JACKSON        PTCLDY    63  61  93 CALM      30.11R
DYERSBURG      MOCLDY    66  55  68 CALM      30.12S
UNION CITY     CLOUDY    64  64 100 NW3       30.11S
PARIS          CLOUDY    64  61  88 CALM      30.12R
HUNTINGDON     CLOUDY    61  60  96 CALM      30.11R
LEXINGTON      CLEAR     61  61 100 CALM      30.10S
SAVANNAH       CLEAR     64  64 100 CALM      30.12R
$$

TNZ008-025-027-028-033-062-065-066-161100-
NORTH MIDDLE TENNESSEE

CITY           SKY/WX    TMP DP  RH WIND       PRES   REMARKS
NASHVILLE      CLOUDY    66  64  94 CALM      30.10S
DICKSON        MOCLDY    64  63  94 W5        30.10
PORTLAND       CLOUDY    66  63  88 VRB6      30.09S
CLARKSVILLE    CLOUDY    67  63  87 W5        30.10R
LEBANON        CLOUDY    65  63  93 CALM      30.08
SMYRNA         MOCLDY    65  64  96 CALM      30.11R
MURFREESBORO   CLOUDY    65  63  93 CALM      30.10R
COOKEVILLE     MOCLDY    63  63 100 CALM      30.11S
LIVINGSTON     CLOUDY    65  62  90 SW3       30.12
GALLATIN       CLOUDY    66  65  97 CALM      30.10S
CROSSVILLE     CLOUDY    68  62  81 W6        30.14S
$$

TNZ061-075-076-078-094-096-097-161100-
SOUTH MIDDLE TENNESSEE

CITY           SKY/WX    TMP DP  RH WIND       PRES   REMARKS
LEWISBURG      CLOUDY    62  61  97 CALM      30.10S
FAYETTEVILLE   CLEAR     64  63  94 MISG      30.12R
TULLAHOMA      CLEAR     63  61  94 CALM      30.13R
WINCHESTER     MOCLDY    64  63  94 CALM      30.12R VSB 1
MCMINNVILLE    MOCLDY    63  63 100 CALM      30.12R
COLUMBIA       CLEAR     63  63 100 CALM      30.10R
SHELBYVILLE      N/A     63  61  94 CALM      30.12R VSB 3/4
$$

TNZ017-018-042-046-047-161100-
NORTHEAST TENNESSEE

CITY           SKY/WX    TMP DP  RH WIND       PRES   REMARKS
TRI CITIES     CLOUDY    64  62  93 CALM      30.12R
ELIZABETHTON   CLOUDY    61  59  94 CALM      30.12S
$$

TNZ012-013-036-069-073-074-161100-
CENTRAL EAST TENNESSEE

CITY           SKY/WX    TMP DP  RH WIND       PRES   REMARKS
KNOXVILLE      CLOUDY    71  69  93 SW9       30.09S
OAK RIDGE      CLOUDY    70  68  93 S3        30.11R
GATLINBURG     CLOUDY    64  64 100 CALM      30.10S
MORRISTOWN     CLOUDY    66  66 100 SW6       30.12R
$$

TNZ083-085-099-161100-
SOUTHEAST TENNESSEE

CITY           SKY/WX    TMP DP  RH WIND       PRES   REMARKS
CHATTANOOGA    FOG       71  69  93 CALM      30.09F VSB 1/2
$$

SKY/WX REPORTED AS FAIR MEANS FEW OR NO CLOUDS BELOW
12 THOUSAND FEET.



USA.gov is the U.S. government's official web portal to all federal, state and local government web resources and services.